LEMUR-2-LYNSEY-SYMO (42779 NORAD) Tracking and Keplerian Element Data

This shows tracking and keplerian element data for the satellite.

Feedback or suggestion? Click here.




ElementValue
Catalog42779
NameLEMUR-2-LYNSEY-SYMO
Epoch Orbit3584
Epoch Day45.4499804
Epoch Year2018
RAAN107.1873
Inclination97.4195
Eccentricity0.0013854
Argument of Perigee139.4674
Mean Anonmoly220.7597
Mean Motion15.2160129
Decay Rate2.079E-05
L11 42779U 17036Q 18045.44998040 .00002079 00000-0 94998-4 0 9993
L22 42779 97.4195 107.1873 0013854 139.4674 220.7597 15.21601290 35847

Live tracking and technical data element details for LEMUR-2-LYNSEY-SYMO (NORAD 42779). LEMUR-2-LYNSEY-SYMO can be tracked NOW for your location showing map with azimuth and elevation plus other details from your city location.

Track the satellite on the map from your city or location and see movement details for azimuth, elevation, latitude, longitude, range, height, and movement on the map or in text.







IsCatalogInMostPopularTable: catalog: 42779, numindb: 130
Update: records affected: 1



GetName: 42779 LEMUR-2-LYNSEY-SYMO

Hit Count: updated at: Fri, 16 Nov 2018 03:29:09 GMT